Theta_e
303 303 303 304 304 304 305 305 305 304 303 297 294 295 291 288 289 299 300 301 303 292 284 286 289 287 287 291 292 294 294 291 291 291 291 290 290 289 288 286 286 286 286 286 285 288 286 288 286 289 288 290 291 292 292 292 292 288 286 287 289 302 280 279 280 281 284 287 287 288 286 283 284 284 281 282 283 283 279 275 277 277 276 276 276 273 276
303 303 303 303 304 304 304 305 305 304 303 298 295 288 287 288 289 293 300 301 299 290 282 283 279 283 290 290 291 292 294 293 291 290 289 287 287 287 287 289 289 288 288 286 285 289 282 288 289 288 291 291 296 293 293 294 293 292 289 287 292 283 282 282 277 275 278 280 282 281 283 283 280 282 281 281 281 281 280 279 278 277 278 276 277 271 275
303 303 303 303 304 304 304 305 304 304 304 301 291 289 289 288 291 292 296 300 299 288 287 284 277 281 285 287 287 289 292 292 292 291 289 290 288 287 287 289 289 288 288 288 288 287 285 284 288 290 289 290 293 294 295 295 293 298 302 300 291 282 282 280 275 273 269 270 270 272 276 282 280 281 280 282 281 280 281 280 275 275 278 278 273 269 276
303 303 303 303 304 304 304 304 304 303 303 302 292 289 288 286 280 285 288 291 292 293 295 290 287 281 284 280 286 288 285 290 291 291 289 290 289 287 286 286 288 286 286 285 285 285 288 285 285 284 285 288 291 290 297 300 300 303 305 299 291 282 284 282 279 280 278 277 277 281 281 281 280 282 281 281 280 280 281 277 272 275 276 275 276 279 281
302 302 303 303 303 304 304 304 303 303 303 302 288 287 290 286 283 280 281 289 292 289 291 289 288 283 287 281 286 283 285 287 290 292 287 290 288 287 286 285 284 283 284 282 283 284 285 286 284 283 285 286 289 290 291 291 299 306 300 298 286 282 281 283 283 281 281 281 281 284 283 280 280 282 283 282 280 279 278 276 280 279 280 274 280 280 281
302 302 302 303 303 304 304 304 303 302 302 303 292 286 285 282 282 286 287 284 283 285 286 291 288 289 288 284 287 285 284 285 283 289 291 290 290 285 285 285 284 283 285 283 279 281 283 284 282 284 285 284 286 287 289 289 292 298 293 295 289 284 280 285 284 283 283 284 284 285 285 283 281 281 280 281 281 282 280 280 280 279 274 273 279 279 279
302 302 302 303 303 304 304 304 303 302 301 301 291 286 284 285 283 285 289 283 286 290 289 291 290 287 289 284 286 284 284 284 286 286 287 287 287 286 279 282 283 283 284 282 280 280 278 279 282 282 283 283 283 282 285 288 288 289 290 290 289 288 282 285 285 283 284 284 285 286 285 284 283 282 281 280 282 281 281 281 279 279 279 279 280 280 279
302 302 302 303 303 304 304 304 304 302 300 297 293 288 284 282 282 282 286 285 284 287 291 290 288 285 289 283 285 285 284 284 286 287 285 280 285 288 283 283 284 284 284 283 281 282 283 283 278 283 282 279 283 281 284 284 287 288 287 289 288 287 281 288 284 282 282 284 286 286 286 285 283 283 283 282 282 282 281 281 281 282 280 280 281 280 279
302 302 302 303 303 303 304 304 304 302 300 292 289 287 289 286 285 286 283 281 283 288 287 288 286 285 286 284 286 286 285 285 287 285 287 285 284 285 284 284 284 284 284 284 284 285 285 285 285 285 285 281 286 282 283 284 284 284 285 287 286 285 280 284 283 278 278 282 283 284 285 285 283 282 282 282 281 280 281 278 281 278 279 280 279 278 276
301 301 302 302 303 303 304 304 304 302 299 290 286 286 290 288 288 286 280 278 284 280 284 288 287 283 285 286 286 285 285 287 287 280 286 287 286 285 286 286 283 283 283 283 284 286 287 287 287 287 287 288 287 287 285 285 283 282 283 285 283 282 283 280 279 277 275 281 282 283 283 282 280 279 282 282 282 282 282 282 283 282 280 278 277 278 279
301 301 301 302 303 303 304 304 304 303 297 290 288 286 289 287 285 285 280 279 279 280 279 283 284 286 288 288 287 289 286 287 287 282 281 286 287 288 287 285 283 281 282 286 288 288 289 289 289 287 287 286 286 286 285 286 284 284 285 283 282 282 284 279 281 275 275 279 279 280 278 270 270 280 283 284 282 282 280 279 280 282 282 279 280 282 282
301 301 301 302 302 303 304 304 304 304 300 292 290 288 290 290 284 279 273 278 277 279 279 278 281 286 286 287 288 286 286 286 286 288 284 285 287 287 286 285 283 279 286 288 288 289 290 290 290 288 287 287 287 287 288 286 286 286 283 286 280 279 278 276 277 273 275 276 277 275 269 270 280 283 283 285 284 283 281 281 281 281 282 283 282 283 283
300 301 301 301 302 303 303 304 304 304 303 295 290 289 291 291 286 280 278 278 276 278 275 279 282 285 286 287 286 287 288 288 288 290 289 286 286 287 287 285 283 285 289 287 287 286 284 283 283 283 284 286 287 286 287 287 286 286 284 283 282 278 279 277 274 271 272 271 270 268 267 278 281 282 283 285 285 282 283 281 281 282 281 281 280 281 282
300 300 301 301 302 302 303 304 304 304 304 300 290 290 291 290 287 283 277 274 278 279 279 277 280 281 283 284 285 286 287 286 286 286 284 287 285 285 287 288 288 290 289 287 284 283 280 277 275 277 281 280 280 281 284 285 285 285 285 285 285 284 281 278 275 276 273 269 264 268 278 279 281 280 281 281 280 281 277 274 278 281 281 281 280 280 281
300 300 300 301 301 302 303 303 304 304 304 302 291 289 291 292 288 286 283 280 278 281 280 275 278 280 280 282 283 283 283 283 283 283 285 286 285 287 287 289 290 289 288 286 282 280 278 276 275 274 276 275 272 276 280 281 284 284 284 284 283 283 282 279 279 275 271 271 267 267 264 265 274 278 281 283 283 283 281 277 276 281 280 281 280 279 280
300 300 301 301 301 302 303 303 304 304 304 303 291 288 290 291 288 286 283 277 274 275 280 282 282 281 280 280 282 282 280 278 281 280 281 282 284 286 288 289 290 289 288 285 282 280 278 277 272 268 271 272 277 277 276 280 279 283 283 284 285 283 281 280 280 273 270 267 267 264 265 267 271 278 280 282 282 282 280 276 275 280 279 280 280 280 280
301 301 301 301 301 302 302 303 304 304 304 303 292 287 291 292 290 287 282 280 280 278 279 281 283 282 278 277 281 278 281 278 281 277 277 279 281 283 286 288 287 287 285 280 280 280 278 276 277 275 277 279 275 274 278 277 275 275 281 281 280 280 276 274 274 270 270 268 266 266 263 269 278 278 280 282 281 282 279 270 268 278 280 281 280 279 279
300 300 301 301 301 302 302 303 303 304 304 304 294 288 290 292 291 288 284 278 276 279 282 284 283 279 280 280 279 281 280 279 279 278 278 280 280 281 283 285 283 285 285 278 277 275 274 273 272 272 272 280 280 277 270 277 273 274 275 276 275 272 273 274 271 268 271 272 268 272 273 277 280 281 282 282 282 281 273 268 271 280 281 281 280 280 281
301 300 300 301 301 302 302 303 304 304 304 303 295 287 287 291 293 288 284 281 279 278 283 284 286 284 285 285 283 283 283 282 280 275 275 275 280 283 283 283 284 279 282 275 276 274 271 273 277 277 273 275 279 273 278 272 273 277 277 274 272 271 269 272 271 271 267 267 271 272 271 276 281 281 282 282 282 272 268 275 279 280 282 282 281 281 282
300 300 300 301 301 302 302 303 304 304 304 304 296 286 289 289 292 290 286 280 277 281 282 284 285 284 286 284 282 281 281 281 278 278 275 274 281 280 276 275 279 281 279 277 272 275 269 271 273 276 270 274 277 280 272 275 278 277 276 277 271 274 269 271 269 270 268 266 267 269 268 276 282 282 280 281 273 272 280 282 283 283 282 282 282 282 282
300 300 300 300 301 301 302 303 303 304 304 304 299 286 287 288 292 292 288 282 277 275 280 285 286 285 285 284 286 285 283 282 282 281 281 279 282 275 269 271 277 276 275 274 271 272 273 270 274 273 277 275 276 275 271 270 275 280 279 278 276 279 272 272 271 276 268 267 267 268 273 277 284 280 274 279 282 284 284 285 283 286 285 284 284 284 284
300 300 300 300 301 301 302 303 303 303 304 304 300 287 286 290 292 294 292 286 280 281 284 286 287 286 287 288 288 286 288 287 288 286 284 279 281 280 278 278 280 279 281 277 274 271 277 275 276 270 271 272 276 270 273 264 269 275 278 278 271 279 276 275 272 278 273 272 274 280 282 283 285 285 284 285 287 289 289 287 286 285 285 287 285 285 285
300 300 300 300 301 301 302 303 303 303 303 304 298 288 286 289 291 293 285 284 284 286 285 283 282 285 289 290 289 288 287 288 288 285 280 279 279 280 280 279 280 283 282 280 280 277 278 275 272 277 273 276 271 269 274 270 268 274 270 278 277 281 279 280 280 278 283 283 284 285 285 286 285 287 288 287 287 288 288 287 284 285 285 285 285 285 284
299 299 300 300 301 301 302 302 303 303 303 303 300 288 287 288 290 291 287 284 280 282 282 283 281 279 280 285 289 289 288 288 291 288 286 284 276 277 278 280 283 280 278 281 278 281 276 274 278 276 271 276 274 267 265 269 269 276 272 273 275 278 278 277 276 279 275 272 281 281 282 283 284 284 285 286 286 285 286 285 284 285 284 284 284 283 283
299 299 299 300 300 301 301 302 303 303 303 303 299 293 291 288 289 289 285 282 282 276 276 277 276 287 289 289 289 285 286 289 292 288 287 286 283 279 280 285 285 283 282 283 280 277 273 274 277 269 270 278 276 269 274 269 272 275 267 273 274 276 278 276 275 273 267 269 279 279 280 280 281 281 282 284 284 284 284 284 284 284 284 283 283 282 282
299 299 299 300 300 301 301 302 302 303 302 303 299 288 286 287 289 288 289 286 280 276 277 276 279 286 287 287 288 289 288 287 288 290 289 288 286 286 285 286 285 283 282 281 278 276 274 271 269 272 271 275 277 271 273 277 275 276 273 275 279 277 280 269 275 275 277 278 279 279 279 279 280 280 281 280 281 281 281 281 281 281 281 280 281 281 281
299 299 299 300 300 301 301 302 302 302 302 301 294 287 288 288 287 291 289 287 284 278 276 275 277 282 287 285 288 288 286 286 285 284 287 286 286 285 284 282 281 280 281 279 278 274 274 273 271 276 276 277 277 277 277 274 276 271 272 278 278 277 274 276 275 272 269 272 277 279 273 270 278 279 281 282 282 281 281 280 281 280 281 280 280 280 279
299 299 300 300 300 301 301 302 302 302 302 301 293 290 288 287 289 289 287 286 286 278 276 273 276 284 285 285 288 287 287 288 284 285 284 285 285 284 282 281 280 281 280 279 277 276 272 273 275 273 272 276 275 273 277 276 275 273 275 278 278 277 277 273 263 266 268 275 279 281 277 276 278 280 281 281 281 281 281 281 280 281 280 279 279 279 279
299 299 300 300 301 301 302 302 302 302 302 299 285 287 286 288 288 292 292 290 285 281 276 280 280 280 278 283 289 287 286 286 286 284 284 284 284 283 283 282 280 278 278 277 275 274 275 276 273 276 278 278 275 272 274 268 264 269 274 278 278 280 278 278 278 276 279 278 279 279 278 279 280 280 281 281 281 281 280 281 280 280 280 279 278 279 279
299 300 300 301 301 302 302 302 302 301 302 288 283 279 279 286 284 290 293 293 287 282 278 275 275 280 283 286 286 284 285 287 285 286 284 283 282 282 281 281 282 284 281 278 277 275 275 276 274 276 278 281 275 268 264 270 268 274 277 277 279 280 280 280 279 280 280 280 278 279 278 280 280 281 281 281 283 282 281 281 281 280 280 279 279 280 279
299 300 301 301 302 302 302 302 302 302 300 283 279 276 274 275 285 289 296 292 287 285 278 277 278 279 279 284 284 285 284 286 284 283 284 284 283 283 283 282 281 283 279 277 276 275 276 273 274 277 279 283 273 266 270 269 269 274 278 278 279 281 281 281 279 279 280 280 281 280 281 281 280 280 280 281 281 282 283 282 283 285 281 282 279 279 280
300 300 301 301 302 302 302 302 302 301 294 290 285 283 281 283 286 287 297 295 290 288 280 275 274 275 274 279 283 286 286 285 284 282 282 284 284 282 281 282 281 281 284 275 276 276 276 272 273 276 279 282 276 264 273 266 265 271 277 279 279 279 279 280 281 281 281 283 283 281 280 279 280 280 279 281 281 280 281 281 280 280 285 282 280 280 280
300 300 301 301 301 302 303 303 303 301 295 294 297 300 300 301 301 300 300 290 286 280 278 273 273 275 274 280 283 285 287 281 279 280 282 283 284 280 279 281 279 281 288 280 275 277 275 271 272 274 279 277 270 269 269 265 271 275 277 281 279 279 279 280 281 280 281 281 280 278 277 280 280 280 280 281 280 280 279 280 280 278 278 279 279 279 280
300 301 301 301 301 302 302 303 302 301 294 289 287 289 292 299 297 297 288 286 284 282 277 276 274 275 274 278 281 283 285 282 279 278 278 282 282 280 278 279 280 279 276 278 277 276 276 275 274 273 276 274 271 269 269 272 275 275 276 279 279 279 279 280 280 280 281 281 279 281 279 279 281 280 280 280 280 281 280 279 280 280 279 278 279 279 279
300 300 300 301 301 302 301 299 288 290 286 287 286 284 286 300 301 299 293 285 277 276 275 277 275 271 271 270 266 274 282 283 279 279 278 278 281 281 279 276 274 275 277 280 272 272 272 274 276 274 269 273 271 270 267 273 275 276 279 279 279 280 280 281 281 280 280 280 280 280 281 281 281 280 279 279 280 279 280 279 278 280 280 280 279 280 279
300 300 300 300 300 300 291 294 289 285 283 284 286 295 300 302 299 288 287 288 285 273 270 272 274 273 269 269 270 277 284 282 280 279 278 277 279 279 277 275 273 275 279 273 273 275 272 279 276 270 265 271 267 269 273 276 276 278 279 280 280 282 282 281 280 280 279 279 279 280 280 279 279 279 279 279 279 279 279 280 279 279 279 279 280 279 279
300 300 300 298 291 291 284 285 289 289 286 290 295 300 301 299 293 291 289 287 289 286 279 270 273 274 275 271 270 274 279 274 278 276 276 277 276 273 274 272 270 277 275 270 267 272 275 279 269 268 269 267 267 274 277 277 278 278 279 280 281 281 280 279 281 281 280 279 279 279 279 279 279 279 278 279 279 278 279 279 279 279 279 280 280 280 279
299 297 287 286 285 281 282 283 285 291 298 298 299 290 287 286 280 280 282 280 283 288 277 278 273 273 277 276 274 278 279 274 277 276 272 273 274 274 273 273 273 276 268 267 270 278 271 266 270 269 265 273 275 276 276 277 278 279 281 281 281 281 279 280 282 281 279 278 279 279 279 279 279 278 278 279 279 279 277 280 279 280 279 281 281 281 280
293 286 284 281 282 279 281 285 292 298 295 292 287 284 282 278 278 278 277 278 278 279 276 277 276 277 277 278 276 281 282 277 271 272 273 276 274 270 272 270 273 271 266 266 270 277 271 265 262 264 265 269 274 276 277 277 277 280 281 281 282 281 281 281 282 282 281 280 280 281 281 280 280 280 279 278 278 278 278 279 279 280 280 280 280 280 280
286 285 280 278 279 281 288 292 297 292 289 283 278 278 278 278 277 275 276 275 276 275 276 276 277 278 279 279 276 276 282 280 275 271 269 272 280 273 273 271 271 271 265 263 268 274 270 268 263 264 265 266 273 276 277 278 279 279 280 280 280 281 282 282 282 281 281 281 280 280 281 281 281 281 280 279 279 277 277 278 279 280 279 280 281 280 280
287 285 281 278 283 286 290 293 289 282 280 277 276 275 274 275 276 276 276 271 271 273 277 277 278 279 280 278 279 275 281 282 278 276 274 274 276 277 270 269 272 270 265 263 268 269 265 265 261 264 268 268 275 276 277 279 279 281 279 279 280 281 281 281 282 280 280 280 280 279 279 280 281 279 280 280 279 277 277 275 277 280 279 279 280 281 282
288 288 289 292 294 294 293 286 279 280 278 278 273 272 273 274 275 274 273 272 272 269 278 279 275 276 278 279 279 278 279 282 276 273 272 272 277 273 268 269 269 265 264 265 268 265 267 266 261 260 263 272 275 275 276 278 279 280 279 279 281 281 280 281 281 280 280 281 281 280 280 280 280 280 280 280 280 279 277 277 280 279 279 280 281 281 280
297 297 295 291 289 285 282 279 278 275 272 271 268 270 270 271 273 272 273 273 272 277 277 282 280 281 283 281 280 282 279 282 281 276 274 271 274 272 267 265 265 266 266 267 266 262 265 263 261 268 273 275 277 275 276 278 278 279 279 280 280 281 282 282 282 282 281 281 281 281 281 280 280 281 280 280 280 280 279 279 280 280 280 279 279 280 279
292 292 287 281 281 278 279 275 280 278 273 270 268 268 268 268 270 269 271 272 275 276 278 280 279 278 275 278 280 279 280 283 281 274 275 274 272 270 267 267 266 267 271 264 263 267 264 260 265 272 275 276 278 276 277 278 278 278 280 280 279 279 280 281 281 281 281 280 280 280 280 280 280 280 279 279 280 281 281 280 280 279 278 277 278 279 279
282 278 275 273 274 277 276 270 274 272 269 271 271 268 268 268 268 267 273 274 279 279 280 279 280 282 280 283 283 283 282 277 278 276 275 275 270 267 268 267 264 266 267 265 260 260 264 265 269 272 274 275 276 277 276 278 278 280 280 280 280 279 280 281 281 280 280 281 281 280 280 280 280 280 279 280 279 280 280 281 281 279 279 278 278 279 278
277 277 275 271 271 274 271 268 270 270 272 273 272 274 274 274 276 277 279 280 280 279 281 281 282 283 281 282 280 278 277 275 275 276 275 271 269 267 267 268 269 268 264 259 261 263 264 269 271 274 276 276 276 276 276 277 278 279 281 282 282 281 281 281 281 281 282 281 280 280 280 279 280 280 280 280 279 279 279 280 279 279 278 278 278 279 279
278 279 275 273 270 272 274 269 271 271 275 277 277 276 277 278 279 280 280 281 280 280 281 280 281 281 279 277 278 276 275 276 275 277 273 271 269 270 274 270 267 262 263 261 260 257 261 269 270 272 274 275 275 276 276 277 278 279 281 281 281 282 281 280 280 281 282 280 280 280 280 280 280 281 280 280 280 280 279 279 279 278 278 279 279 279 278
277 279 274 270 269 271 273 273 277 277 277 278 278 277 278 278 279 279 280 280 280 280 280 281 278 276 277 278 279 275 273 274 274 272 273 272 275 271 267 267 264 262 261 263 263 262 267 271 273 275 276 275 275 277 277 277 278 279 279 280 281 281 281 281 281 281 280 280 281 280 280 280 281 280 280 281 280 280 280 280 279 277 278 278 278 278 278
279 276 273 270 272 274 272 273 277 277 277 277 276 277 278 279 279 279 280 279 279 280 280 281 275 277 274 275 274 274 275 276 272 272 277 273 271 268 266 262 259 263 266 269 273 272 271 275 275 274 276 278 278 277 277 278 279 279 279 280 281 282 282 282 282 282 281 281 281 281 281 281 280 280 280 279 280 281 282 280 279 278 278 278 278 278 278
278 276 277 273 273 271 274 275 277 274 275 275 277 277 276 277 277 280 280 281 280 280 279 283 280 278 276 278 273 274 272 272 275 275 272 270 269 268 266 264 263 266 266 273 274 276 276 275 275 276 277 277 278 278 278 278 278 280 281 281 280 280 281 282 282 282 282 282 282 282 282 281 281 281 281 282 281 281 280 279 278 278 278 278 278 278 278
281 277 275 275 275 272 275 272 271 271 273 276 277 276 277 278 279 280 280 281 281 276 274 275 276 277 276 275 272 271 273 277 275 271 268 267 267 268 268 269 270 270 274 277 277 277 278 278 276 276 277 278 279 279 279 279 279 279 279 279 280 281 281 281 282 282 281 282 282 281 282 282 283 283 283 281 281 281 280 279 278 278 278 278 278 278 278
279 274 273 274 278 277 278 277 276 278 279 279 279 279 280 280 279 280 280 281 279 276 273 272 276 275 274 274 275 276 278 276 273 270 269 270 269 268 266 271 277 278 277 277 279 279 279 280 280 279 279 280 282 282 281 282 282 281 281 280 280 280 281 282 282 282 282 281 282 282 283 283 283 282 281 281 281 280 280 281 280 278 278 278 278 278 279
Wind_Speed
27 26 27 27 28 30 31 31 31 26 25 9 7 4 4 5 1 5 6 7 1 4 1 2 0 1 2 3 2 1 0 2 3 0 1 1 2 0 1 4 3 3 3 0 1 1 1 2 3 1 1 3 2 4 2 4 5 5 1 1 0 3 2 4 2 2 4 3 2 2 3 2 6 6 3 1 1 1 5 2 6 6 2 1 1 1 2
27 27 26 27 28 31 32 30 28 26 22 6 4 2 2 1 1 5 6 7 4 8 1 2 2 4 4 1 2 2 2 1 1 2 1 0 2 0 1 2 1 1 1 1 1 1 2 1 1 1 0 1 1 4 5 4 3 2 2 1 2 1 1 7 2 2 4 3 2 3 3 5 4 2 2 1 2 4 2 5 1 5 5 5 7 5 2
27 28 26 27 29 32 31 30 29 26 22 9 1 2 1 1 1 1 6 10 10 5 1 1 1 2 2 2 3 5 1 1 3 2 1 1 1 0 1 1 3 1 1 2 0 4 1 0 4 1 2 2 3 5 8 6 3 3 1 1 2 6 0 3 6 7 5 5 3 2 1 1 0 1 2 3 4 3 0 2 1 3 2 3 3 2 3
27 27 26 27 29 31 31 29 29 28 21 12 3 1 2 3 1 6 6 5 6 4 0 1 2 0 2 2 2 1 2 2 5 5 3 1 1 2 2 2 1 2 3 3 4 6 5 3 0 4 3 4 3 4 4 7 4 5 10 4 5 3 2 3 3 7 9 6 4 2 2 1 3 0 4 1 2 1 4 5 4 5 3 2 3 4 3
26 27 26 27 29 29 29 30 29 30 25 15 2 4 3 2 5 2 5 6 5 3 6 8 5 3 2 3 3 4 2 3 1 6 2 4 1 2 6 4 2 3 3 1 2 3 2 6 5 4 2 2 2 7 4 6 6 1 4 4 5 4 6 4 4 7 1 1 1 1 2 3 2 1 1 3 5 2 5 2 1 2 9 2 1 2 5
26 27 27 27 27 27 29 28 29 30 27 20 3 4 4 5 1 1 1 1 4 5 6 10 9 14 7 4 3 4 5 6 2 5 2 1 3 1 3 9 6 1 1 2 3 6 3 5 3 5 2 3 7 3 7 5 8 5 1 2 4 5 3 2 4 4 6 7 5 4 6 5 2 3 3 4 4 6 4 0 1 2 2 6 1 3 5
26 26 27 27 26 26 28 29 29 29 27 17 4 6 3 4 0 0 2 2 3 3 3 9 8 13 11 1 7 8 9 7 3 2 3 4 6 3 3 5 9 7 2 3 3 3 2 3 2 2 4 3 3 4 5 2 8 5 2 4 1 6 2 1 3 4 7 7 6 8 10 4 6 8 6 3 10 8 7 4 3 2 2 4 9 11 6
25 26 26 25 26 26 27 29 29 27 25 10 10 7 3 4 3 3 5 3 3 6 2 2 6 10 11 5 10 6 8 7 7 7 7 2 4 4 6 3 5 8 9 5 5 1 3 3 3 1 1 3 4 1 1 4 5 5 2 1 2 6 3 6 4 4 4 6 5 7 7 4 4 4 5 5 5 11 8 4 4 7 6 3 8 11 7
25 26 25 25 25 25 26 28 28 26 21 8 7 2 4 2 1 0 1 5 6 4 5 4 7 5 8 8 9 8 13 7 5 6 6 7 3 5 2 1 3 4 8 9 5 1 1 2 1 1 0 1 1 3 2 2 4 7 4 3 2 5 2 1 5 6 1 2 1 1 2 5 4 2 4 5 4 6 2 3 2 0 5 4 5 7 3
24 25 25 24 24 25 25 27 26 23 15 5 2 5 3 1 1 2 1 4 4 3 4 2 1 6 2 3 4 5 9 8 5 2 6 7 7 4 3 2 3 4 9 7 5 5 2 5 6 4 4 3 3 1 3 2 2 4 3 0 2 1 8 5 4 7 4 2 2 6 6 6 2 2 2 2 3 6 6 3 4 2 1 4 6 5 2
24 24 25 24 24 25 25 26 26 23 11 7 5 3 4 3 3 4 3 6 6 6 3 6 5 0 2 3 2 6 8 12 10 4 2 5 9 7 4 5 3 2 3 3 5 4 6 5 3 3 3 3 2 1 1 5 1 1 2 2 1 2 6 5 2 5 3 2 4 1 4 4 4 2 3 1 2 3 8 4 4 5 2 1 2 4 3
23 23 24 24 23 24 24 26 25 23 12 1 2 1 2 0 2 1 3 6 1 5 5 3 2 1 3 4 0 2 6 9 8 5 3 2 3 6 8 9 5 3 3 5 7 8 4 0 0 1 1 4 3 3 8 7 7 4 3 0 2 3 4 3 2 6 5 1 2 3 3 6 2 5 1 2 7 9 14 7 5 5 6 6 9 7 6
22 23 23 24 23 23 24 24 26 25 19 4 3 6 4 0 2 2 5 6 3 5 4 2 3 2 2 3 5 4 3 3 2 4 1 4 5 6 4 2 3 4 6 11 9 4 2 1 1 0 3 6 8 8 10 8 8 7 4 4 2 1 5 3 3 3 3 3 2 3 3 1 2 2 1 1 1 1 7 11 6 6 4 1 4 2 2
22 22 23 23 22 22 23 23 23 25 24 12 4 4 4 2 2 3 1 4 3 2 1 3 5 8 8 8 4 4 3 7 5 1 4 3 3 3 2 2 4 8 8 2 2 2 1 4 2 2 3 4 2 2 1 2 5 9 10 8 3 6 4 3 2 1 4 2 3 0 2 1 2 0 1 2 1 1 2 6 1 2 2 2 2 3 2
21 22 23 22 22 21 22 23 22 25 23 16 1 1 5 6 2 3 2 5 4 1 4 4 6 5 4 3 4 5 6 4 7 5 3 2 1 1 2 5 8 8 3 0 3 5 1 2 1 1 1 2 0 2 1 1 1 3 5 4 4 3 2 3 5 1 6 7 4 2 3 1 6 3 1 1 1 1 3 6 1 2 4 1 1 3 1
21 23 21 23 22 21 22 22 22 23 24 19 4 3 4 4 1 3 3 2 4 5 7 3 2 2 2 2 2 4 2 3 4 3 6 5 3 7 2 5 7 5 4 6 2 3 2 1 2 3 1 1 1 1 0 1 1 2 4 7 7 6 7 5 4 4 4 3 6 5 6 6 4 1 3 2 2 3 3 4 1 0 2 3 1 4 3
20 21 21 23 22 21 21 22 22 23 23 19 6 3 7 7 3 1 2 4 6 3 4 3 0 1 2 4 4 5 3 2 3 2 4 5 5 4 10 10 4 6 8 5 6 4 5 4 2 2 0 1 0 0 1 2 2 6 11 7 10 9 5 4 3 2 1 5 4 3 2 1 1 3 4 3 0 4 3 3 4 1 3 1 2 4 3
20 20 21 22 22 21 21 21 22 22 22 21 7 1 3 5 4 1 5 4 5 3 4 2 4 6 6 1 1 2 1 2 3 1 0 3 2 4 5 6 10 5 4 4 3 4 3 3 3 2 1 1 0 1 1 1 2 1 3 3 4 5 4 6 2 3 3 6 0 3 2 2 1 3 4 5 3 2 5 7 4 1 0 1 3 2 1
19 20 20 21 20 21 21 21 21 22 22 21 8 1 3 4 7 4 7 4 5 3 6 2 1 2 0 1 1 0 0 0 1 2 4 5 2 2 2 3 1 4 7 2 5 3 2 1 0 1 1 4 3 1 1 3 1 2 1 3 4 3 2 1 3 5 2 2 5 3 1 2 1 4 3 3 3 3 6 2 2 2 1 1 1 3 1
19 19 20 20 20 20 20 21 21 21 22 22 9 1 4 4 5 4 3 3 1 3 3 3 2 4 1 4 5 6 4 5 2 5 2 1 4 4 1 3 3 3 6 3 3 0 3 1 1 0 2 1 1 1 3 1 1 1 0 0 3 1 2 1 1 0 2 2 3 2 0 1 4 4 3 4 3 1 3 3 1 1 1 2 2 2 2
19 19 19 19 20 20 20 20 20 20 22 22 12 3 6 3 5 5 2 2 3 4 4 2 1 3 1 2 1 4 3 4 3 3 1 3 2 2 3 1 4 2 2 2 3 2 0 1 2 0 1 1 3 2 2 1 2 1 1 1 2 0 2 0 0 1 3 1 1 2 1 3 6 1 3 1 2 6 2 3 2 2 2 2 3 5 4
18 18 19 19 19 19 19 19 20 20 20 20 12 2 4 6 3 4 1 2 4 2 1 3 1 2 2 1 1 3 1 0 1 2 0 3 4 4 3 1 1 0 0 1 2 2 2 0 0 2 2 2 3 2 1 2 1 3 2 2 2 5 2 1 3 2 1 1 3 2 0 2 4 6 5 3 3 3 2 4 3 3 3 2 3 3 4
18 18 18 18 18 18 18 19 19 19 19 19 11 4 2 7 8 6 1 3 2 1 3 3 1 2 2 1 1 2 2 0 3 2 2 3 2 3 2 3 3 0 0 1 1 3 1 2 1 2 2 1 1 1 3 2 2 1 2 2 4 1 2 2 6 3 5 7 6 3 1 2 5 5 3 5 3 4 4 5 5 2 2 2 2 2 4
17 17 17 18 17 17 17 18 19 18 18 17 8 1 3 3 5 6 5 5 3 1 2 5 5 3 2 5 6 7 3 1 1 0 1 2 2 1 2 1 1 1 1 1 2 1 1 2 0 1 2 1 2 3 2 3 1 0 2 1 2 1 0 1 5 2 3 0 1 1 2 2 2 4 4 4 3 2 2 4 3 2 1 3 2 2 2
17 17 16 16 16 16 17 17 17 18 17 17 11 2 1 3 4 6 3 1 3 3 1 4 1 2 2 4 3 2 1 0 1 3 4 5 6 4 2 0 1 1 2 1 1 4 3 2 1 2 2 1 2 1 1 3 1 1 2 1 1 2 1 7 2 3 2 2 4 2 1 1 1 1 3 3 3 4 3 3 3 3 2 2 1 2 2
16 16 16 15 15 16 16 16 17 17 16 15 7 3 3 2 5 1 5 4 2 2 2 1 2 3 3 3 2 2 3 3 3 5 4 2 1 2 4 1 1 2 2 2 2 2 2 2 2 1 3 1 1 2 0 0 1 0 3 0 1 2 2 1 1 3 1 2 2 3 3 3 2 2 0 2 3 4 3 2 3 3 4 3 2 3 2
16 16 16 15 15 15 16 16 16 16 16 13 4 2 2 1 3 6 3 1 0 1 4 0 4 7 4 3 2 3 3 3 2 3 5 6 4 3 5 3 2 3 5 3 3 4 3 2 3 2 1 0 1 1 0 1 2 1 1 1 1 2 3 1 5 5 1 4 5 5 3 2 3 2 2 1 1 4 3 2 3 3 3 3 3 3 3
15 15 15 14 15 16 15 15 14 15 15 11 3 2 0 2 3 1 1 2 3 2 1 1 2 5 2 1 2 3 3 3 2 3 4 5 6 5 5 4 3 2 3 3 4 4 2 4 1 1 0 1 2 2 1 0 2 3 3 2 0 2 3 4 3 6 1 4 5 7 4 1 3 5 2 1 2 3 3 2 1 0 0 1 1 1 2
15 15 15 15 15 16 15 14 14 12 13 9 1 1 2 0 1 3 3 1 5 4 2 1 2 3 2 2 6 6 3 3 3 3 3 3 4 4 5 4 3 3 3 3 2 1 1 0 1 0 1 1 4 0 3 1 2 1 2 1 0 1 2 2 3 4 0 2 5 6 3 4 2 3 2 3 3 4 3 1 1 2 3 3 2 1 1
15 15 15 16 16 16 15 14 13 11 10 4 2 3 3 1 1 2 3 3 3 3 1 1 2 1 2 1 2 3 3 3 4 3 4 3 3 3 1 3 2 1 2 1 1 1 1 0 1 1 1 1 1 1 2 1 1 2 2 3 3 0 1 2 3 2 1 2 4 3 3 3 2 3 2 2 2 4 5 4 4 3 3 2 2 1 2
16 16 16 17 16 15 15 14 11 9 6 3 3 2 2 2 1 0 3 3 0 2 2 1 1 2 2 0 0 2 4 3 3 3 2 1 1 1 0 2 1 0 1 1 1 0 0 1 1 1 1 1 3 1 3 2 0 2 3 3 2 1 1 1 2 0 2 6 4 4 4 4 3 4 2 1 2 3 2 2 4 4 3 3 3 2 1
17 17 17 17 17 15 15 12 9 4 2 1 2 1 1 1 2 3 4 1 0 2 1 1 1 3 1 3 2 1 1 1 1 2 1 2 1 2 3 3 0 1 1 1 0 1 0 1 0 1 0 1 5 2 2 3 2 3 2 4 3 3 1 0 1 3 3 6 8 6 4 1 3 5 4 4 3 2 4 4 3 1 2 2 1 2 3
18 18 18 17 17 16 14 11 6 3 2 4 5 4 4 6 8 6 2 0 3 1 2 3 1 0 0 1 4 2 2 1 3 6 2 2 1 2 1 3 2 2 3 2 1 1 1 1 0 1 0 1 2 1 2 2 4 4 4 4 3 2 1 0 0 2 5 3 2 3 3 6 5 4 4 5 4 4 4 3 2 2 1 2 3 4 4
18 19 19 18 16 16 12 7 1 2 3 2 2 2 3 6 4 2 2 4 2 0 1 1 1 1 2 4 2 2 2 1 2 2 1 2 0 1 1 2 3 0 3 2 1 1 0 0 1 1 1 2 1 2 1 4 4 3 2 1 0 2 2 1 1 3 3 3 1 0 1 3 4 3 3 4 3 1 2 1 1 0 1 1 2 3 3
19 19 18 16 16 11 4 3 3 2 1 1 0 2 1 9 2 1 2 1 1 1 2 1 1 1 2 3 2 2 1 0 1 1 1 3 2 1 0 1 2 2 2 1 2 1 0 1 3 1 2 2 1 1 3 4 4 2 1 2 1 4 3 1 2 2 0 1 3 4 5 6 6 4 4 3 3 2 2 1 0 0 2 3 3 4 2
19 19 17 15 8 1 0 2 4 2 2 1 1 3 10 5 4 2 2 2 1 2 1 0 1 0 3 0 0 1 0 0 1 1 1 1 3 2 2 2 1 1 0 1 1 1 0 0 1 1 1 1 4 4 6 5 5 5 6 6 7 9 6 7 4 4 3 3 4 5 5 3 4 4 3 3 2 1 1 0 0 0 2 3 5 4 3
18 18 14 5 2 1 2 0 1 2 1 3 9 11 7 3 0 1 3 1 1 2 1 2 1 3 4 2 1 4 2 2 3 2 3 2 1 2 2 1 0 2 1 1 1 0 2 1 3 1 1 3 4 6 6 4 5 6 5 6 7 5 1 2 4 7 5 4 5 2 2 1 1 0 1 2 2 0 1 1 3 2 4 5 4 4 4
16 9 3 2 1 1 0 1 0 5 11 12 6 1 2 3 0 1 2 2 2 2 3 2 1 1 0 1 1 2 2 1 2 1 2 0 1 1 0 1 1 0 1 1 2 1 1 3 0 1 3 6 5 6 6 6 7 5 5 5 6 5 3 4 7 7 4 2 0 1 0 1 2 2 3 3 2 3 4 4 3 3 3 4 5 4 4
7 3 4 3 2 0 1 2 5 13 7 2 1 0 0 1 1 1 0 0 1 1 1 1 2 1 3 1 4 2 1 1 1 2 1 1 2 3 1 1 2 1 1 2 2 1 1 1 2 2 3 4 4 3 2 3 3 4 4 5 5 6 6 5 6 7 7 6 7 7 9 7 7 5 4 3 3 3 3 3 4 4 4 5 5 5 4
5 6 2 2 1 2 3 5 10 5 1 0 2 2 0 1 1 1 0 0 1 0 0 1 2 3 4 4 2 2 1 1 1 2 1 3 0 1 1 1 1 1 1 0 4 3 1 1 1 1 4 3 4 3 2 2 3 3 3 4 4 5 6 7 6 4 5 3 1 3 5 5 5 6 5 4 3 2 4 3 4 3 3 4 4 3 4
2 1 2 0 3 2 4 5 4 1 1 1 1 1 1 1 0 0 0 1 0 1 1 0 0 0 0 1 1 1 2 2 1 2 2 0 2 1 1 0 1 1 1 1 3 1 1 1 0 1 4 3 5 4 3 1 2 2 2 3 4 5 5 4 4 4 3 2 1 1 3 4 4 4 4 4 4 4 4 4 5 4 4 4 4 4 3
2 2 2 1 3 4 4 1 2 1 1 0 2 0 0 1 0 1 0 1 0 1 1 0 1 0 2 1 2 2 0 0 2 1 1 0 0 1 1 1 2 1 1 2 1 2 2 0 1 4 5 6 6 3 3 3 3 2 3 3 4 4 4 5 5 4 4 4 4 4 4 4 4 4 4 4 4 4 4 3 4 5 4 4 3 4 3
7 5 2 2 1 1 0 1 1 1 1 2 2 1 2 2 0 0 2 1 1 1 2 0 1 1 0 1 0 0 1 0 0 1 1 1 1 2 1 1 1 0 2 1 1 1 1 1 1 6 7 6 6 4 3 4 3 2 1 3 4 5 6 6 6 5 5 4 4 5 5 4 5 5 3 3 2 1 3 4 4 4 5 4 3 3 3
2 0 1 1 0 1 1 1 1 1 1 1 2 1 1 1 2 3 1 2 2 2 1 1 2 2 2 2 1 1 1 1 3 1 0 0 1 0 0 0 1 3 0 1 1 1 3 2 6 5 5 5 6 4 3 3 3 2 1 2 3 3 3 2 1 1 1 2 2 2 2 3 4 2 2 2 3 4 4 4 4 4 4 3 3 4 1
0 2 2 1 1 1 1 2 2 2 1 1 1 1 2 1 2 2 1 2 1 3 3 1 1 1 2 2 2 1 1 1 1 1 1 0 1 0 1 2 2 2 1 2 1 2 1 2 4 3 5 4 6 6 2 3 4 5 4 3 3 4 4 4 5 4 4 4 5 4 4 4 4 4 4 4 4 4 3 5 5 4 4 2 3 3 2
3 1 1 3 3 2 1 0 0 1 1 1 0 3 2 3 2 3 5 0 2 5 6 4 1 0 1 1 2 2 0 1 0 0 1 1 1 2 2 0 1 1 1 1 0 2 4 5 4 5 5 6 6 6 4 3 3 2 4 6 6 5 5 5 5 5 5 4 3 4 5 4 5 4 5 5 3 3 4 5 4 4 3 1 3 5 4
1 1 2 1 2 1 1 1 0 1 1 1 2 3 2 3 4 5 3 0 2 4 4 2 1 1 0 1 0 1 1 1 0 1 1 0 1 1 1 0 1 0 1 1 2 3 4 5 5 6 6 5 6 6 4 3 3 5 6 4 4 6 5 5 4 5 6 3 3 4 4 4 5 5 3 1 3 4 4 4 4 4 4 5 5 3 2
1 1 1 1 2 0 1 0 1 2 1 1 0 1 2 1 3 5 3 2 4 1 2 1 1 2 1 1 1 1 1 0 0 2 1 1 1 1 1 0 1 1 2 2 4 5 4 3 3 5 5 4 4 6 5 3 3 4 4 4 5 5 5 6 6 6 5 5 5 5 5 4 4 4 4 5 4 4 3 4 4 3 4 4 3 2 3
1 1 0 1 1 1 1 0 2 2 2 2 2 2 2 2 3 5 6 2 2 3 2 0 1 1 2 0 1 1 1 0 1 2 1 1 1 3 1 1 0 2 4 5 5 4 4 4 4 3 5 5 4 3 3 3 4 5 5 6 7 7 6 7 8 8 6 5 5 4 5 5 4 4 4 3 3 6 5 3 3 3 4 4 4 3 3
1 1 1 1 1 1 1 0 1 2 2 3 0 1 1 1 4 6 1 2 2 1 1 0 0 1 1 0 1 0 1 1 2 0 1 1 2 0 1 1 3 4 2 3 3 5 6 5 3 3 3 3 4 3 3 3 4 5 6 6 5 4 5 7 7 6 6 7 7 8 6 4 4 5 5 7 6 3 2 1 2 3 4 4 4 4 4
0 1 2 2 2 2 3 0 1 1 4 4 2 2 3 3 2 3 0 1 3 4 3 0 1 0 0 1 1 0 2 1 1 2 3 3 1 2 3 4 5 6 6 5 5 4 4 4 4 3 3 4 4 4 3 4 4 6 6 5 5 5 4 4 5 5 5 6 6 5 5 7 8 8 6 3 2 2 4 4 3 4 4 4 4 4 4
1 1 1 2 2 3 2 0 0 5 7 5 3 4 3 2 3 4 1 1 1 1 3 1 1 0 1 2 3 2 0 1 1 1 1 3 3 3 4 5 5 5 6 5 6 5 6 5 4 4 4 5 6 5 4 4 4 4 4 5 4 4 5 5 6 6 5 4 4 6 8 7 5 3 3 3 2 2 3 6 4 4 4 5 5 5 5
Wind_Direction
356 353 350 346 344 347 347 346 346 348 350 3 352 334 12 44 286 260 341 339 102 54 57 308 28 145 234 298 300 288 359 181 227 79 308 280 204 253 193 220 191 252 205 193 147 157 193 164 214 238 139 203 192 231 301 267 29 69 63 48 259 103 73 63 339 325 306 312 321 3 20 44 49 29 61 64 75 171 166 171 180 134 173 75 33 86 243
357 354 351 348 346 348 348 346 344 345 358 332 304 50 87 270 272 324 345 358 89 68 67 339 296 311 317 24 284 253 215 168 316 185 326 118 344 244 283 334 102 312 60 79 112 296 142 322 109 142 165 88 228 198 43 44 46 68 208 133 247 100 297 113 97 20 336 347 349 357 335 51 80 92 340 14 77 55 140 109 46 101 210 164 127 189 245
357 355 353 349 349 350 349 347 343 344 349 355 149 42 213 310 290 287 310 3 46 75 183 171 223 306 339 323 358 346 311 288 269 173 85 50 48 358 282 204 306 27 13 69 29 38 100 131 356 125 34 318 306 14 75 63 80 40 335 48 104 81 82 84 138 153 165 185 209 232 235 139 285 120 45 38 83 109 55 130 43 125 231 110 131 220 254
358 357 354 351 351 352 351 348 346 344 346 2 102 202 56 25 49 319 340 14 36 45 281 115 244 71 358 34 334 29 326 328 20 79 76 60 85 89 281 329 66 52 41 30 21 18 12 86 324 41 345 329 354 330 355 93 113 101 60 27 73 115 78 75 146 163 182 197 210 253 105 47 73 210 67 10 61 36 95 96 87 188 183 158 232 167 150
360 358 355 353 354 353 353 352 348 347 343 357 122 26 94 125 56 347 337 332 32 53 9 18 22 359 263 68 339 350 309 264 9 31 111 12 96 41 50 356 31 341 61 57 54 6 348 10 76 8 326 275 287 312 25 50 18 322 96 22 77 67 57 350 82 53 99 203 253 304 113 113 8 57 23 58 55 43 79 83 225 161 112 248 321 251 112
1 360 357 356 355 353 356 355 352 349 345 345 83 40 1 59 295 125 236 78 332 358 2 357 14 22 35 54 3 5 2 28 36 324 39 157 40 99 352 28 32 286 189 114 67 338 26 34 21 321 360 336 338 17 18 61 347 333 48 37 106 125 112 275 70 9 23 24 25 42 64 50 85 43 351 38 18 53 75 106 32 45 115 198 221 84 83
2 1 360 358 356 354 358 0 356 352 347 344 65 69 334 106 270 212 337 76 7 27 290 351 5 35 19 119 12 14 15 24 1 354 316 25 359 50 98 1 358 14 20 102 105 12 75 11 339 51 325 30 331 23 338 335 15 19 61 35 105 97 42 94 77 74 26 11 44 53 67 47 41 14 9 23 74 65 76 60 7 103 118 134 116 88 75
3 2 1 0 357 356 359 4 1 355 347 335 62 48 50 11 23 332 359 80 47 353 341 29 10 47 4 42 358 0 2 22 5 23 24 17 348 14 82 47 18 31 42 55 86 29 105 119 55 305 64 329 43 45 135 287 322 32 49 63 1 105 205 152 98 60 2 344 357 35 55 59 56 355 18 35 75 72 50 67 26 62 64 65 95 86 63
4 3 2 1 359 357 1 7 5 1 351 37 46 51 46 251 172 208 64 32 343 347 9 16 54 44 4 32 350 7 360 2 350 68 47 57 11 354 12 11 337 28 49 55 82 229 212 224 230 230 117 71 308 59 279 45 328 351 3 29 330 70 158 51 102 104 272 293 322 20 50 68 95 19 352 7 36 80 1 56 309 122 158 166 93 81 105
4 4 3 1 0 358 1 7 9 8 359 93 39 32 320 22 300 66 110 72 344 21 308 8 46 41 328 346 342 358 342 2 18 46 5 28 46 13 318 302 71 21 33 26 346 319 225 241 240 223 220 229 265 243 251 331 337 334 12 288 60 88 134 140 126 119 207 173 179 156 123 93 71 251 338 12 51 112 118 75 45 31 111 115 139 182 208
4 4 3 1 360 359 359 5 10 14 20 41 36 3 350 13 327 341 51 84 352 10 357 28 51 290 254 319 346 355 8 13 16 65 346 349 2 359 33 45 83 91 50 334 315 278 262 248 253 206 207 216 234 322 14 7 12 258 315 34 66 63 121 135 146 124 175 104 135 103 100 145 222 272 289 211 162 189 101 53 6 354 54 140 163 130 121
3 4 3 1 360 359 359 2 8 14 28 82 150 54 346 283 96 90 76 82 13 336 56 54 353 343 23 344 103 22 12 10 358 337 55 347 321 346 22 28 63 35 311 320 327 306 263 212 18 359 97 17 55 67 66 44 11 13 320 330 83 80 83 113 144 101 161 148 86 90 197 235 296 324 21 121 98 103 102 98 62 23 29 69 84 84 89
3 4 3 1 359 358 358 359 4 9 14 25 72 29 321 44 144 107 109 104 46 350 17 11 338 337 355 19 24 352 348 297 298 329 61 34 348 15 27 43 7 272 329 315 331 13 56 305 341 44 337 8 17 34 45 42 20 10 32 39 107 103 107 169 42 102 73 75 87 144 244 229 290 304 3 75 111 103 80 65 21 25 19 19 80 87 92
4 4 3 2 0 358 357 358 360 6 9 12 38 14 332 11 56 51 79 96 27 300 225 311 350 4 6 12 0 318 315 13 335 360 32 350 356 342 320 24 302 284 297 299 40 58 16 32 33 19 343 13 22 19 311 71 51 34 5 1 350 135 94 85 99 354 148 160 102 196 7 349 146 53 23 53 77 21 105 131 79 360 341 39 113 76 74
6 6 7 5 3 359 357 357 358 4 6 6 90 321 19 23 79 124 201 87 136 21 53 45 311 310 328 342 1 14 31 339 15 347 297 273 15 294 269 313 317 318 303 117 10 40 113 98 38 69 336 53 321 251 343 21 296 79 46 17 55 22 172 228 129 238 118 126 75 20 25 244 242 226 262 285 242 238 180 106 79 356 347 334 123 97 40
8 9 8 7 5 2 359 357 357 360 5 2 59 3 37 7 67 99 114 136 123 32 333 314 237 251 295 325 343 60 357 2 335 306 348 350 322 333 317 330 322 333 25 65 69 82 31 123 206 96 186 204 267 57 277 20 352 313 40 34 45 32 74 99 138 146 80 73 133 190 166 242 209 244 275 286 274 194 142 67 84 37 2 349 69 89 45
6 7 8 8 7 4 360 357 357 359 1 8 350 357 26 3 23 63 72 36 70 127 239 281 244 125 84 349 12 18 13 30 337 28 351 343 316 298 309 338 309 27 23 77 11 51 30 39 70 137 31 239 65 192 330 45 16 338 337 8 29 39 3 17 67 77 122 141 115 201 195 155 246 245 273 280 330 149 72 103 252 272 333 28 82 88 80
6 6 6 7 6 5 0 358 358 359 1 1 16 21 337 354 8 120 59 94 101 39 334 341 27 27 30 242 9 291 57 13 24 37 94 285 331 359 328 348 351 335 55 82 8 64 50 60 53 60 73 350 256 48 97 47 49 346 331 350 6 2 350 44 150 125 65 91 176 25 328 280 269 304 293 317 165 106 129 202 223 231 340 30 131 115 100
4 6 6 6 5 4 1 359 359 359 1 3 353 58 344 7 359 68 116 72 77 75 300 301 167 87 204 70 113 149 110 133 219 81 329 4 8 307 256 253 38 351 3 94 54 61 86 320 16 58 90 326 26 122 332 47 288 321 35 23 5 8 67 334 64 42 83 150 108 179 214 237 356 287 294 287 103 160 218 228 209 152 121 82 128 101 105
2 3 4 5 5 3 2 360 360 0 0 3 21 89 270 330 10 25 75 101 91 82 325 349 16 33 336 72 32 31 2 20 39 102 88 346 289 7 33 5 329 53 355 52 45 278 94 34 254 15 28 340 345 136 55 24 35 31 28 318 113 275 87 2 100 150 55 45 75 54 163 273 22 293 343 18 107 222 173 150 88 181 76 32 23 55 39
2 1 0 2 3 3 2 1 0 1 1 2 10 37 348 331 17 15 69 129 112 70 353 316 20 3 48 59 170 144 117 70 23 42 270 227 266 81 83 212 270 8 357 56 74 341 87 335 348 91 215 117 281 49 154 168 359 348 73 128 115 160 88 70 354 173 145 91 122 193 211 260 315 115 143 274 116 149 152 109 80 50 55 35 25 35 22
359 359 359 358 360 1 1 0 0 0 1 2 4 34 23 328 352 7 1 92 96 111 154 272 240 246 244 228 187 172 126 143 285 172 78 11 354 81 154 108 292 123 324 118 32 10 4 210 31 52 23 318 11 99 133 70 63 286 337 52 38 331 152 186 156 348 112 189 169 169 208 298 338 47 79 89 61 78 141 91 90 93 37 2 75 17 11
357 357 356 355 355 356 356 358 359 1 360 0 13 74 18 323 340 348 77 48 348 2 353 5 357 332 350 327 213 193 219 173 114 61 126 109 11 13 44 32 350 219 358 104 123 148 197 110 77 153 77 57 133 47 18 123 171 360 59 324 140 33 94 48 77 74 93 52 60 86 51 41 40 32 43 85 67 24 68 101 95 42 33 30 91 45 14
352 353 351 351 351 351 352 353 357 359 359 358 17 50 333 332 317 352 13 68 97 81 343 6 59 344 279 301 316 341 6 17 16 332 168 125 107 319 329 266 214 26 10 289 180 97 207 107 187 133 101 248 82 63 101 31 19 173 69 360 332 257 213 58 106 152 61 74 203 147 126 59 59 93 65 62 66 66 85 95 89 120 94 52 33 68 62
348 348 347 346 346 346 348 349 354 357 357 360 358 4 211 3 358 16 72 47 359 82 126 312 352 226 273 274 257 301 286 70 64 69 50 67 116 133 137 359 168 64 331 305 89 50 37 83 15 47 90 287 105 349 244 109 323 103 78 285 31 359 103 76 98 68 106 209 168 190 61 357 12 168 122 95 85 74 51 80 106 122 105 98 90 140 95
344 344 342 341 341 341 343 346 350 353 355 360 27 53 66 14 312 43 88 76 106 105 88 322 283 312 321 23 38 276 297 26 50 47 49 98 145 143 159 225 23 36 109 91 76 96 95 49 69 96 100 322 83 127 105 168 174 90 119 200 242 244 22 144 156 89 42 57 61 80 36 354 331 350 150 157 151 120 97 84 107 119 104 100 83 89 117
341 341 339 337 335 336 338 340 347 349 352 1 31 59 87 329 344 42 61 328 97 335 34 357 279 302 4 346 273 334 2 23 16 57 37 21 57 56 69 79 77 3 41 20 38 118 64 101 91 42 122 292 82 100 149 18 56 62 34 286 355 52 61 198 67 94 141 180 197 150 120 250 253 264 228 59 130 117 89 47 42 34 40 34 57 12 10
337 337 335 333 331 331 332 334 341 346 346 358 38 71 110 75 340 353 107 114 94 170 167 257 326 285 308 225 304 336 332 40 65 68 62 26 29 50 69 77 93 58 7 57 7 13 23 55 352 228 156 295 53 355 11 175 64 32 17 320 139 100 181 139 138 159 211 243 190 164 139 141 218 192 207 197 138 114 111 119 140 270 230 156 123 43 355
334 333 331 328 327 325 326 327 335 341 344 352 38 46 1 331 326 2 38 88 100 95 96 236 295 14 60 248 332 343 342 64 67 81 85 51 41 44 69 63 96 144 89 72 108 110 99 255 184 100 11 197 97 289 37 4 43 193 235 266 29 274 149 155 183 142 313 207 166 164 134 165 192 208 172 149 143 123 151 202 202 184 190 192 171 178 155
331 329 326 324 322 321 319 321 329 338 345 20 55 50 39 324 328 45 6 47 106 116 84 59 68 227 315 352 310 312 317 352 24 35 34 31 34 37 94 101 75 70 97 131 137 43 244 173 295 284 292 347 127 177 74 174 110 253 269 281 260 270 233 236 156 75 186 185 157 173 146 143 111 135 125 137 151 146 157 185 183 194 233 175 181 228 216
330 325 323 320 319 317 314 315 320 334 0 49 78 56 39 40 320 242 11 38 87 105 125 112 226 285 358 277 175 321 336 332 345 19 4 76 97 87 336 88 54 101 21 354 47 163 125 12 30 343 351 68 111 97 164 132 202 310 268 237 254 276 213 187 213 213 137 107 98 93 82 97 104 74 47 97 183 185 156 174 197 184 192 176 207 202 240
328 324 320 319 317 314 310 307 309 347 64 50 89 151 175 190 231 268 334 360 109 54 57 40 343 10 289 316 300 280 345 19 44 4 360 27 11 6 17 50 144 20 118 138 198 87 9 219 119 284 56 355 75 95 77 84 151 243 248 249 248 225 227 82 90 103 104 127 105 71 72 103 196 153 189 202 196 193 168 181 195 196 162 170 204 225 245
326 322 319 318 317 313 312 306 300 266 216 231 250 270 264 282 279 271 275 337 46 104 123 88 136 220 19 258 318 338 4 15 6 19 355 337 358 11 22 0 30 66 358 83 339 90 195 137 299 60 295 46 98 111 104 169 214 236 219 212 214 207 163 321 60 126 149 171 116 140 197 194 204 217 177 165 170 160 164 174 210 185 58 16 337 327 330
324 320 318 317 317 318 313 302 317 154 49 46 62 28 342 9 18 90 86 74 101 114 75 108 57 17 263 306 70 282 23 67 291 30 1 311 285 66 287 25 348 97 323 64 266 81 335 65 192 233 313 26 47 83 282 261 242 258 269 252 144 92 79 75 92 141 189 210 339 7 185 159 129 119 110 130 156 161 138 132 121 44 348 312 300 284 275
320 317 315 317 319 321 17 87 67 51 105 342 209 248 270 343 346 338 75 104 76 345 23 11 105 70 349 359 45 271 306 61 338 309 80 281 24 65 314 54 321 59 294 94 40 61 43 244 177 86 236 320 41 224 247 248 270 259 172 133 143 113 80 109 255 222 161 75 113 100 113 120 120 137 180 195 171 168 136 77 82 144 317 294 275 283 289
317 315 315 315 314 5 33 31 54 54 28 9 258 296 327 344 78 57 94 89 120 152 90 253 62 202 146 142 327 284 318 48 295 308 224 284 349 15 91 112 19 270 256 67 209 2 198 274 75 287 279 61 227 191 229 204 204 210 192 193 188 173 185 185 166 126 73 67 95 116 114 114 137 182 194 208 197 134 124 71 320 156 241 267 275 274 281
319 317 314 329 46 46 29 187 309 80 203 242 276 299 318 100 7 57 10 24 352 98 139 156 66 230 165 225 251 278 53 348 335 4 339 25 279 294 38 43 205 295 31 2 5 50 265 59 102 111 174 179 245 229 227 205 191 185 206 208 193 199 103 90 129 120 93 69 76 87 119 155 180 95 178 210 209 123 131 254 239 231 246 257 267 272 259
323 336 40 37 39 55 21 337 298 298 315 301 310 41 359 24 90 336 359 35 284 42 345 66 194 244 354 90 242 251 69 295 53 36 312 242 37 315 19 101 232 191 334 273 256 184 61 40 33 157 261 252 254 260 244 219 221 220 203 173 177 185 155 139 131 115 112 89 49 221 192 251 248 250 196 233 223 226 230 233 247 237 240 251 258 260 285
358 24 42 26 88 125 191 254 317 325 308 262 36 84 308 359 64 26 337 285 16 28 295 108 243 168 132 177 276 293 143 134 21 36 42 277 96 311 14 54 300 63 326 15 303 31 311 334 352 25 287 298 336 282 272 235 235 210 188 185 169 163 151 166 163 153 167 185 196 191 179 189 198 224 222 236 258 248 248 258 261 254 246 255 266 271 263
22 30 19 9 68 249 271 283 324 325 45 71 331 104 172 322 89 309 304 47 342 285 53 285 214 167 189 188 201 302 324 48 343 289 210 308 71 149 264 96 270 82 285 44 252 21 107 278 284 46 295 283 260 277 323 258 208 206 166 155 145 159 167 166 194 203 179 190 168 201 196 190 179 179 186 206 213 261 288 267 248 257 255 255 257 259 255
28 54 23 37 257 298 298 312 342 55 66 46 10 4 64 8 353 186 62 60 150 239 197 181 354 7 6 75 119 221 286 86 132 130 120 244 253 85 47 250 248 69 317 263 279 64 72 77 359 186 238 238 252 287 324 314 238 213 180 150 152 158 170 182 194 176 151 159 167 175 195 186 186 190 188 185 186 208 234 259 282 279 272 270 261 246 249
201 207 219 240 283 288 311 346 62 50 12 100 115 304 274 230 262 12 133 94 324 280 321 151 323 208 276 191 209 149 359 159 123 101 92 334 303 109 224 323 4 94 257 237 111 54 74 218 318 295 258 259 266 292 282 263 259 203 186 157 150 156 163 181 198 211 189 189 188 185 182 179 190 197 191 180 200 214 241 264 273 281 275 266 263 270 265
298 273 185 264 320 313 127 43 317 94 95 3 37 30 345 52 353 81 299 283 291 103 275 204 233 198 299 62 332 216 191 234 301 319 70 234 284 55 82 12 51 301 237 330 70 53 37 224 236 251 257 277 292 303 264 235 235 230 211 162 168 176 175 182 196 205 199 189 184 185 184 181 198 210 193 178 182 251 253 233 244 268 284 287 273 256 256
161 71 93 342 24 292 75 49 307 46 17 61 90 110 319 19 315 3 18 295 303 322 307 357 304 77 289 309 128 330 360 9 63 77 39 351 85 295 51 237 224 242 21 38 36 204 232 224 212 238 276 295 298 290 252 243 226 203 142 150 149 155 179 180 142 133 194 172 170 185 177 199 214 208 152 174 185 220 251 272 257 244 257 265 265 256 250
87 359 27 18 27 277 60 310 327 105 91 296 113 151 148 151 243 180 200 246 138 281 319 78 146 77 24 306 47 17 104 239 306 98 259 327 11 42 110 257 253 27 59 262 333 326 348 285 274 277 272 284 286 297 278 234 207 191 177 149 163 166 161 178 207 215 217 194 199 173 193 213 212 227 211 215 217 208 215 251 277 299 290 262 264 281 277
63 121 47 63 2 330 100 157 343 46 313 151 136 198 171 241 194 242 253 185 298 317 343 314 308 102 201 237 142 228 357 87 41 234 160 79 102 270 242 205 90 52 352 46 19 234 219 238 264 271 264 262 276 291 297 253 215 175 142 174 201 189 199 193 206 211 222 212 198 181 205 194 206 212 231 229 209 214 222 242 254 250 260 272 258 246 244
41 7 83 112 98 275 96 108 287 188 179 203 221 177 181 217 216 229 262 247 259 252 272 241 190 231 199 306 16 346 17 38 170 263 81 39 203 256 25 94 271 194 158 276 252 253 268 256 245 250 268 280 290 290 286 252 206 191 205 191 171 198 196 199 205 216 232 213 187 200 210 211 217 221 224 270 259 227 231 233 246 227 205 218 235 239 211
72 247 81 86 245 219 75 262 244 306 286 177 254 227 250 290 342 320 282 227 243 285 269 291 323 345 356 306 83 208 253 353 314 294 177 202 42 45 12 29 295 251 183 174 233 223 235 253 252 269 272 264 267 287 292 240 215 214 205 202 204 203 201 200 209 225 218 211 212 210 212 215 215 214 213 227 254 269 238 233 239 219 213 233 258 223 172
146 105 105 195 196 168 219 262 27 348 295 329 322 332 313 336 281 263 279 304 351 321 252 173 204 117 267 211 95 42 289 146 128 248 47 27 156 225 156 224 295 307 261 185 230 220 223 241 248 258 279 293 284 255 261 255 227 201 207 211 212 211 203 205 214 217 211 212 219 214 218 213 204 212 227 230 247 268 259 231 220 215 207 204 214 203 176
62 348 29 68 9 328 252 31 53 305 309 326 309 277 262 238 276 282 244 341 311 341 353 342 125 105 249 148 292 346 251 246 176 335 72 225 214 189 75 299 224 197 257 229 222 244 241 246 254 280 268 265 280 263 255 243 218 231 227 222 227 214 211 212 222 221 211 211 214 219 222 193 200 210 211 220 223 239 274 225 204 214 218 204 193 200 196
358 124 228 188 159 218 156 198 185 242 295 284 264 253 178 213 217 266 249 35 12 36 41 215 253 127 212 36 73 342 252 157 105 194 165 207 194 130 187 217 238 210 233 230 224 231 228 228 199 238 282 286 279 263 238 243 224 224 228 229 227 224 228 223 227 226 227 225 223 223 225 222 219 213 220 203 211 266 293 285 229 206 205 196 195 197 202
48 9 277 286 219 192 165 102 172 215 235 245 245 244 161 234 242 243 276 78 63 87 260 250 96 75 64 215 226 205 23 43 224 53 343 269 165 160 215 204 227 225 230 248 262 244 240 242 214 216 231 249 261 259 242 222 217 227 224 226 220 225 234 229 220 218 220 223 214 218 232 236 229 201 169 175 193 212 243 262 251 201 201 196 201 204 205